TAP826 LPPT-LIMC

Flight info

Callsign TAP826
Flight time N/A
Altitude 34000
Route ORVED DCT UREDI N870 PONEN DCT SEROX DCT VILAR DCT KARES DCT BISES DCT BCN DCT SALON DCT AGENA DCT BODEQ DCT LUMAS DCT NIBIK DCT NETUP DCT STP DCT RAPED DCT PIGOS DCT EKSID DCT NOSTA DCT NOPMU DCT EGHIN DCT ANAKI P860 DEVOX
Aircraft A321/M-SDE3FGHIRWY/LB1

Departure

Time 2026-04-29 13:09
Airport Lisbon Humberto Delgado Airport (LPPT)

Arrival

Time N/A
Airport Milan Malpensa International Airport (LIMC)
Time Latitude Longitude Altitude Speed Heading
2026-04-29 12:59 38.77550 -9.13174 337 ft 0 kts 78°
2026-04-29 13:01 38.77549 -9.13183 333 ft 3 kts 78°
2026-04-29 13:01 38.77545 -9.13207 336 ft 3 kts 78°
2026-04-29 13:02 38.77541 -9.13230 333 ft 3 kts 78°
2026-04-29 13:02 38.77537 -9.13253 333 ft 3 kts 64°
2026-04-29 13:02 38.77527 -9.13273 335 ft 3 kts 34°
2026-04-29 13:02 38.77510 -9.13283 333 ft 3 kts
2026-04-29 13:03 38.77497 -9.13283 335 ft 0 kts 348°
2026-04-29 13:03 38.77498 -9.13283 335 ft 2 kts 347°
2026-04-29 13:04 38.77549 -9.13297 415 ft 10 kts 347°
2026-04-29 13:04 38.77615 -9.13315 336 ft 9 kts 350°
2026-04-29 13:04 38.77677 -9.13324 337 ft 9 kts 349°
2026-04-29 13:04 38.77727 -9.13338 341 ft 5 kts 347°
2026-04-29 13:05 38.77747 -9.13344 347 ft 2 kts 347°
2026-04-29 13:05 38.77809 -9.13360 350 ft 17 kts 348°
2026-04-29 13:05 38.77963 -9.13403 356 ft 27 kts 349°
2026-04-29 13:05 38.78169 -9.13458 364 ft 31 kts 347°
2026-04-29 13:06 38.78379 -9.13512 365 ft 31 kts 347°
2026-04-29 13:06 38.78577 -9.13568 372 ft 27 kts 353°
2026-04-29 13:06 38.78764 -9.13504 365 ft 30 kts 21°
2026-04-29 13:06 38.78971 -9.13391 352 ft 35 kts 23°
2026-04-29 13:07 38.79198 -9.13278 352 ft 35 kts 21°
2026-04-29 13:07 38.79416 -9.13157 358 ft 33 kts 23°
2026-04-29 13:07 38.79612 -9.13051 364 ft 29 kts 27°
2026-04-29 13:07 38.79750 -9.12964 359 ft 15 kts 32°
2026-04-29 13:08 38.79756 -9.12831 356 ft 17 kts 116°
2026-04-29 13:08 38.79679 -9.12766 353 ft 12 kts 192°
2026-04-29 13:08 38.79631 -9.12790 356 ft 2 kts 203°
2026-04-29 13:08 38.79529 -9.12845 356 ft 48 kts 202°
2026-04-29 13:09 38.78997 -9.13130 360 ft 116 kts 202°
2026-04-29 13:09 38.78094 -9.13613 491 ft 154 kts 201°
2026-04-29 13:09 38.77110 -9.14160 1261 ft 154 kts 204°
2026-04-29 13:09 38.76121 -9.14696 1986 ft 158 kts 205°
2026-04-29 13:10 38.75030 -9.15278 2360 ft 181 kts 204°
2026-04-29 13:10 38.73780 -9.15944 2802 ft 207 kts 205°
2026-04-29 13:10 38.72372 -9.16695 3329 ft 231 kts 204°
2026-04-29 13:10 38.70821 -9.17522 4061 ft 247 kts 204°
2026-04-29 13:11 38.69232 -9.18367 5040 ft 253 kts 205°
2026-04-29 13:11 38.67587 -9.19243 6007 ft 259 kts 204°
2026-04-29 13:11 38.65797 -9.19703 6916 ft 271 kts 180°
2026-04-29 13:11 38.63969 -9.18965 7784 ft 285 kts 149°
2026-04-29 13:12 38.62624 -9.17061 8687 ft 298 kts 119°
2026-04-29 13:12 38.61852 -9.14584 9642 ft 304 kts 104°
2026-04-29 13:12 38.61727 -9.11839 10212 ft 323 kts 82°
2026-04-29 13:12 38.62499 -9.09092 10529 ft 345 kts 56°
2026-04-29 13:13 38.64208 -9.06877 11016 ft 356 kts 30°
2026-04-29 13:13 38.66490 -9.05637 11776 ft 358 kts 15°
2026-04-29 13:13 38.68876 -9.04645 12690 ft 362 kts 15°
2026-04-29 13:13 38.71294 -9.03658 13589 ft 366 kts 15°
2026-04-29 13:14 38.73745 -9.02665 14350 ft 371 kts 15°
2026-04-29 13:14 38.76203 -9.01668 15117 ft 375 kts 15°
2026-04-29 13:14 38.78708 -9.00645 15891 ft 380 kts 15°
2026-04-29 13:14 38.81219 -8.99612 16607 ft 384 kts 15°
2026-04-29 13:15 38.83774 -8.98552 17339 ft 389 kts 16°
2026-04-29 13:15 38.86278 -8.97161 18059 ft 396 kts 26°
2026-04-29 13:15 38.88584 -8.95175 18680 ft 403 kts 37°
2026-04-29 13:15 38.90615 -8.92646 19268 ft 410 kts 46°
2026-04-29 13:16 38.92548 -8.89910 19852 ft 415 kts 46°
2026-04-29 13:16 38.94499 -8.87150 20419 ft 420 kts 46°
2026-04-29 13:16 38.96476 -8.84359 20983 ft 425 kts 46°
2026-04-29 13:16 38.98478 -8.81537 21557 ft 429 kts 45°
2026-04-29 13:17 39.00476 -8.78720 22119 ft 435 kts 45°
2026-04-29 13:17 39.02523 -8.75830 22691 ft 439 kts 45°
2026-04-29 13:17 39.04595 -8.72898 23242 ft 444 kts 45°
2026-04-29 13:17 39.06682 -8.69941 23710 ft 449 kts 45°
2026-04-29 13:18 39.08735 -8.66875 24156 ft 454 kts 51°
2026-04-29 13:18 39.10441 -8.63409 24610 ft 460 kts 62°
2026-04-29 13:18 39.11703 -8.59613 25063 ft 464 kts 70°
2026-04-29 13:18 39.12777 -8.55736 25507 ft 467 kts 70°
2026-04-29 13:19 39.13882 -8.51770 25973 ft 471 kts 70°
2026-04-29 13:19 39.14999 -8.47778 26404 ft 474 kts 70°
2026-04-29 13:19 39.16131 -8.43762 26834 ft 478 kts 70°
2026-04-29 13:19 39.17273 -8.39713 27263 ft 482 kts 70°
2026-04-29 13:20 39.18407 -8.35684 27673 ft 485 kts 70°
2026-04-29 13:20 39.19556 -8.31573 28090 ft 489 kts 71°
2026-04-29 13:20 39.20706 -8.27433 28505 ft 492 kts 71°
2026-04-29 13:20 39.21863 -8.23256 28894 ft 495 kts 71°
2026-04-29 13:21 39.23025 -8.19063 29267 ft 499 kts 71°
2026-04-29 13:21 39.24197 -8.14822 29638 ft 502 kts 71°
2026-04-29 13:21 39.25374 -8.10566 29995 ft 505 kts 71°
2026-04-29 13:21 39.26556 -8.06280 30346 ft 508 kts 71°
2026-04-29 13:22 39.27720 -8.02048 30827 ft 506 kts 71°
2026-04-29 13:22 39.28908 -7.97781 31371 ft 504 kts 70°
2026-04-29 13:22 39.30121 -7.93546 31896 ft 502 kts 70°
2026-04-29 13:22 39.31352 -7.89333 32433 ft 500 kts 70°
2026-04-29 13:23 39.32586 -7.85134 32980 ft 498 kts 70°
2026-04-29 13:23 39.33814 -7.80943 33536 ft 496 kts 70°
2026-04-29 13:23 39.35031 -7.76764 33821 ft 496 kts 70°
2026-04-29 13:24 39.37383 -7.68568 33880 ft 485 kts 70°
2026-04-29 13:24 39.40098 -7.60613 33879 ft 483 kts 64°
2026-04-29 13:25 39.43106 -7.52830 33877 ft 483 kts 64°
2026-04-29 13:25 39.47600 -7.41149 33876 ft 483 kts 64°
2026-04-29 13:26 39.50562 -7.33397 33874 ft 483 kts 64°
2026-04-29 13:26 39.53539 -7.25594 33868 ft 483 kts 64°
2026-04-29 13:27 39.56514 -7.17796 33867 ft 483 kts 64°
2026-04-29 13:27 39.59470 -7.10036 33863 ft 483 kts 64°
2026-04-29 13:28 39.62428 -7.02226 33861 ft 482 kts 64°
2026-04-29 13:28 39.65380 -6.94401 33862 ft 483 kts 65°
2026-04-29 13:29 39.68333 -6.86574 33863 ft 483 kts 65°
2026-04-29 13:29 39.71285 -6.78728 33872 ft 483 kts 65°
2026-04-29 13:30 39.74233 -6.70893 33863 ft 482 kts 65°
2026-04-29 13:30 39.77148 -6.63104 33865 ft 482 kts 65°
2026-04-29 13:31 39.80072 -6.55249 33861 ft 482 kts 65°
2026-04-29 13:31 39.82501 -6.48710 33862 ft 482 kts 65°
2026-04-29 13:32 39.85890 -6.39569 33859 ft 482 kts 65°
2026-04-29 13:32 39.88215 -6.32967 33861 ft 482 kts 68°
2026-04-29 13:33 39.90848 -6.24943 33856 ft 482 kts 69°
2026-04-29 13:33 39.93454 -6.16874 33855 ft 482 kts 68°
2026-04-29 13:34 39.96093 -6.08866 33866 ft 483 kts 68°
2026-04-29 13:34 39.98769 -6.00801 33856 ft 483 kts 68°
2026-04-29 13:35 40.01427 -5.92743 33867 ft 483 kts 68°
2026-04-29 13:35 40.04061 -5.84737 33856 ft 483 kts 68°
2026-04-29 13:36 40.06703 -5.76649 33855 ft 484 kts 69°
2026-04-29 13:36 40.09343 -5.68563 33853 ft 484 kts 69°
2026-04-29 13:37 40.11972 -5.60496 33862 ft 484 kts 69°
2026-04-29 13:37 40.14597 -5.52389 33860 ft 484 kts 69°
2026-04-29 13:38 40.17215 -5.44276 33858 ft 483 kts 69°
2026-04-29 13:38 40.19813 -5.36227 33862 ft 483 kts 69°
2026-04-29 13:39 40.22429 -5.28125 33861 ft 482 kts 69°
2026-04-29 13:39 40.25025 -5.20053 33858 ft 482 kts 69°
2026-04-29 13:40 40.27608 -5.11960 33858 ft 482 kts 69°
2026-04-29 13:40 40.30185 -5.03857 33861 ft 482 kts 70°
2026-04-29 13:41 40.32751 -4.95780 33862 ft 482 kts 69°
2026-04-29 13:41 40.35330 -4.87664 33862 ft 482 kts 70°
2026-04-29 13:42 40.37895 -4.79547 33863 ft 481 kts 70°
2026-04-29 13:42 40.40446 -4.71433 33864 ft 481 kts 70°
2026-04-29 13:43 40.42990 -4.63327 33867 ft 480 kts 70°
2026-04-29 13:43 40.45515 -4.55267 33869 ft 480 kts 70°
2026-04-29 13:44 40.48046 -4.47164 33871 ft 479 kts 70°
2026-04-29 13:44 40.50570 -4.39070 33874 ft 479 kts 70°
2026-04-29 13:45 40.53092 -4.30956 33873 ft 478 kts 70°
2026-04-29 13:45 40.55582 -4.22894 33877 ft 478 kts 70°